Location: Table Mountain
(47.2500°N, 120.5778°W)
Time: 16:00:25
(UTC-07:00)

ISS - Pass Details

Date: 09 October 2017
Orbit: 401 x 408 km, 51.6° (Epoch: 23 October)

Event Time Altitude Azimuth Distance (km) Brightness Sun altitude
Rises 19:02:03 0° 291° (WNW) 2,321 1.5 -7.0°
Reaches altitude 10° 19:04:11 10° 298° (WNW) 1,462 0.1 -7.4°
Maximum altitude 19:07:21 43° 12° (NNE) 579 -3.2 -7.9°
Enters shadow 19:10:15 12° 84° (E) 1,368 -1.8 -8.4°
